contact: severine.martini@mio.osupytheas.fr, dominique.lefevre@mio.osupytheas.fr
Project:EMSO Ligure-ouest http://www.emso-fr.org/EMSO-France
Sensor Optode, line 4330 Serial 272 
DOI : "https://doi.org/10.17882/97948" 
Title:EMSO Ligure Ouest : Data BathyDock capteur Optode - deploiement "2023-04-28"
Datetime,Profondeur,Latitude,Longitude,optode_type,serial,O2_concentration,O2_saturation,Temperature,Calibrated_Phase,Temp_Compensated_Phase,phase_blue_light,phase_red_light,Amplitude_blue_light,Amplitude_red_light,thermistor_bridge
time,m,degree_north,degree_east,1,1,umol.l-1,%,degree_C,degree,degree,degree,degree,mV,mV,mV
2024-01-29T00:00:07,2420,42.8014,5.9826,4330,272,185.934,56.941,13.306,36.076,36.656,41.243,4.587,296.3,546.6,291.4
2024-01-29T00:03:07,2420,42.8014,5.9826,4330,272,186.358,57.074,13.309,36.047,36.627,41.219,4.592,296.3,546.7,291.3
2024-01-29T00:06:07,2420,42.8014,5.9826,4330,272,186.082,56.989,13.308,36.065,36.645,41.237,4.591,296.3,546.6,291.3
2024-01-29T00:09:07,2420,42.8014,5.9826,4330,272,186.078,56.987,13.307,36.066,36.646,41.236,4.590,296.3,546.7,291.3
2024-01-29T00:12:07,2420,42.8014,5.9826,4330,272,186.206,57.028,13.309,36.057,36.637,41.230,4.593,296.2,546.7,291.3
2024-01-29T00:15:07,2420,42.8014,5.9826,4330,272,186.196,57.021,13.306,36.059,36.639,41.236,4.597,296.3,546.7,291.4
2024-01-29T00:18:07,2420,42.8014,5.9826,4330,272,186.050,56.979,13.308,36.067,36.647,41.239,4.591,296.3,546.6,291.3
2024-01-29T00:21:07,2420,42.8014,5.9826,4330,272,186.193,57.024,13.309,36.058,36.638,41.233,4.595,296.3,546.6,291.3
2024-01-29T00:24:08,2420,42.8014,5.9826,4330,272,186.050,56.978,13.307,36.068,36.648,41.238,4.590,296.3,546.6,291.3
2024-01-29T00:27:08,2420,42.8014,5.9826,4330,272,186.226,57.030,13.305,36.058,36.637,41.234,4.596,296.2,546.6,291.4
2024-01-29T00:30:08,2420,42.8014,5.9826,4330,272,186.245,57.038,13.307,36.056,36.635,41.226,4.590,296.3,546.7,291.3
2024-01-29T00:33:07,2420,42.8014,5.9826,4330,272,186.338,57.065,13.306,36.050,36.630,41.226,4.596,296.3,546.7,291.4
2024-01-29T00:36:07,2420,42.8014,5.9826,4330,272,186.414,57.087,13.305,36.045,36.625,41.216,4.592,296.3,546.7,291.4
2024-01-29T00:39:07,2420,42.8014,5.9826,4330,272,186.125,56.999,13.306,36.063,36.643,41.238,4.595,296.3,546.7,291.4
2024-01-29T00:42:07,2420,42.8014,5.9826,4330,272,186.242,57.036,13.306,36.056,36.636,41.229,4.593,296.2,546.6,291.4
2024-01-29T00:45:08,2420,42.8014,5.9826,4330,272,186.212,57.024,13.304,36.059,36.639,41.228,4.589,296.3,546.6,291.4
2024-01-29T00:48:08,2420,42.8014,5.9826,4330,272,186.117,56.997,13.305,36.065,36.644,41.234,4.590,296.3,546.6,291.4
2024-01-29T00:51:08,2420,42.8014,5.9826,4330,272,186.180,57.014,13.304,36.061,36.641,41.235,4.594,296.3,546.7,291.4
2024-01-29T00:54:07,2420,42.8014,5.9826,4330,272,186.501,57.115,13.306,36.039,36.619,41.211,4.592,296.3,546.7,291.4
2024-01-29T00:57:07,2420,42.8014,5.9826,4330,272,186.115,56.994,13.304,36.065,36.645,41.239,4.595,296.2,546.7,291.4
2024-01-29T01:00:07,2420,42.8014,5.9826,4330,272,186.260,57.040,13.305,36.055,36.635,41.229,4.594,296.2,546.7,291.4
2024-01-29T01:03:07,2420,42.8014,5.9826,4330,272,186.343,57.063,13.303,36.051,36.631,41.224,4.593,296.3,546.7,291.4
2024-01-29T01:06:07,2420,42.8014,5.9826,4330,272,186.314,57.056,13.305,36.052,36.632,41.227,4.595,296.3,546.7,291.4
2024-01-29T01:09:07,2420,42.8014,5.9826,4330,272,186.381,57.074,13.303,36.049,36.629,41.220,4.592,296.2,546.7,291.5
2024-01-29T01:12:07,2420,42.8014,5.9826,4330,272,186.316,57.056,13.304,36.052,36.632,41.222,4.590,296.3,546.7,291.4
2024-01-29T01:15:08,2420,42.8014,5.9826,4330,272,186.297,57.053,13.306,36.053,36.633,41.223,4.590,296.2,546.7,291.4
2024-01-29T01:18:08,2420,42.8014,5.9826,4330,272,186.318,57.058,13.305,36.051,36.631,41.226,4.595,296.2,546.7,291.4
2024-01-29T01:21:08,2420,42.8014,5.9826,4330,272,186.520,57.120,13.305,36.038,36.618,41.214,4.597,296.2,546.6,291.4
2024-01-29T01:24:08,2420,42.8014,5.9826,4330,272,186.173,57.013,13.305,36.061,36.641,41.232,4.591,296.2,546.7,291.4
2024-01-29T01:27:08,2420,42.8014,5.9826,4330,272,186.426,57.090,13.304,36.045,36.625,41.216,4.591,296.1,546.7,291.4
2024-01-29T01:30:08,2420,42.8014,5.9826,4330,272,186.309,57.054,13.304,36.053,36.633,41.223,4.590,296.2,546.7,291.4
2024-01-29T01:33:07,2420,42.8014,5.9826,4330,272,186.186,57.016,13.304,36.060,36.640,41.230,4.590,296.2,546.6,291.4
2024-01-29T01:36:07,2420,42.8014,5.9826,4330,272,186.286,57.049,13.306,36.053,36.633,41.223,4.591,296.2,546.6,291.4
2024-01-29T01:39:07,2420,42.8014,5.9826,4330,272,186.222,57.028,13.305,36.058,36.638,41.235,4.597,296.2,546.6,291.4
2024-01-29T01:42:07,2420,42.8014,5.9826,4330,272,186.231,57.030,13.304,36.057,36.637,41.228,4.591,296.2,546.7,291.4
2024-01-29T01:45:07,2420,42.8014,5.9826,4330,272,186.461,57.102,13.305,36.042,36.622,41.213,4.591,296.1,546.7,291.4
2024-01-29T01:48:08,2420,42.8014,5.9826,4330,272,186.296,57.055,13.309,36.051,36.631,41.223,4.592,296.1,546.6,291.3
2024-01-29T01:51:08,2420,42.8014,5.9826,4330,272,186.264,57.045,13.308,36.053,36.633,41.221,4.588,296.2,546.7,291.3
2024-01-29T01:54:08,2420,42.8014,5.9826,4330,272,186.560,57.133,13.306,36.036,36.616,41.208,4.592,296.2,546.7,291.4
2024-01-29T01:57:08,2420,42.8014,5.9826,4330,272,186.274,57.051,13.310,36.052,36.632,41.223,4.591,296.2,546.7,291.2
2024-01-29T02:00:07,2420,42.8014,5.9826,4330,272,186.449,57.097,13.305,36.044,36.624,41.218,4.594,296.2,546.7,291.4
2024-01-29T02:03:07,2420,42.8014,5.9826,4330,272,186.333,57.065,13.307,36.049,36.629,41.220,4.591,296.2,546.7,291.3
2024-01-29T02:06:07,2420,42.8014,5.9826,4330,272,186.353,57.069,13.305,36.049,36.629,41.216,4.587,296.2,546.7,291.4
2024-01-29T02:09:07,2420,42.8014,5.9826,4330,272,186.281,57.046,13.304,36.054,36.634,41.225,4.591,296.2,546.7,291.4
2024-01-29T02:12:08,2420,42.8014,5.9826,4330,272,186.293,57.052,13.307,36.052,36.632,41.222,4.590,296.2,546.7,291.3
2024-01-29T02:15:08,2420,42.8014,5.9826,4330,272,186.160,57.010,13.305,36.061,36.641,41.228,4.587,296.2,546.7,291.4
2024-01-29T02:18:08,2420,42.8014,5.9826,4330,272,186.389,57.078,13.304,36.047,36.627,41.220,4.593,296.2,546.7,291.4
2024-01-29T02:21:07,2420,42.8014,5.9826,4330,272,186.224,57.032,13.307,36.056,36.636,41.229,4.593,296.1,546.7,291.3
2024-01-29T02:24:08,2420,42.8014,5.9826,4330,272,186.573,57.138,13.307,36.034,36.614,41.211,4.597,296.2,546.6,291.3
2024-01-29T02:27:08,2420,42.8014,5.9826,4330,272,186.173,57.015,13.307,36.060,36.640,41.236,4.596,296.3,546.7,291.3
2024-01-29T02:30:07,2420,42.8014,5.9826,4330,272,186.208,57.023,13.304,36.059,36.639,41.232,4.593,296.2,546.6,291.4
2024-01-29T02:33:07,2420,42.8014,5.9826,4330,272,186.414,57.086,13.304,36.046,36.626,41.222,4.596,296.1,546.7,291.4
2024-01-29T02:36:07,2420,42.8014,5.9826,4330,272,186.485,57.111,13.307,36.040,36.620,41.211,4.591,296.1,546.8,291.3
2024-01-29T02:39:07,2420,42.8014,5.9826,4330,272,186.239,57.034,13.306,36.056,36.636,41.227,4.591,296.2,546.7,291.4
2024-01-29T02:42:08,2420,42.8014,5.9826,4330,272,186.432,57.100,13.311,36.041,36.621,41.208,4.587,296.2,546.7,291.2
2024-01-29T02:45:08,2420,42.8014,5.9826,4330,272,186.465,57.106,13.307,36.041,36.621,41.214,4.593,296.2,546.6,291.3
2024-01-29T02:48:08,2420,42.8014,5.9826,4330,272,186.400,57.086,13.307,36.045,36.625,41.221,4.596,296.1,546.7,291.3
2024-01-29T02:51:08,2420,42.8014,5.9826,4330,272,186.281,57.049,13.307,36.053,36.633,41.226,4.593,296.2,546.7,291.3
2024-01-29T02:54:07,2420,42.8014,5.9826,4330,272,185.971,56.953,13.306,36.073,36.653,41.238,4.585,296.2,546.7,291.3
2024-01-29T02:57:07,2420,42.8014,5.9826,4330,272,186.547,57.125,13.303,36.038,36.618,41.219,4.601,296.2,546.6,291.5
2024-01-29T03:00:07,2420,42.8014,5.9826,4330,272,186.434,57.090,13.303,36.045,36.625,41.220,4.595,296.2,546.7,291.5
2024-01-29T03:03:07,2420,42.8014,5.9826,4330,272,186.282,57.046,13.304,36.054,36.634,41.225,4.591,296.2,546.7,291.4
2024-01-29T03:06:07,2420,42.8014,5.9826,4330,272,186.218,57.026,13.304,36.058,36.638,41.227,4.589,296.2,546.7,291.4
2024-01-29T03:09:08,2420,42.8014,5.9826,4330,272,186.251,57.036,13.304,36.056,36.636,41.230,4.593,296.2,546.6,291.4
2024-01-29T03:12:07,2420,42.8014,5.9826,4330,272,186.275,57.041,13.302,36.055,36.635,41.226,4.591,296.2,546.7,291.5
2024-01-29T03:15:08,2420,42.8014,5.9826,4330,272,186.464,57.100,13.303,36.043,36.623,41.217,4.594,296.1,546.6,291.5
2024-01-29T03:18:07,2420,42.8014,5.9826,4330,272,186.523,57.118,13.303,36.039,36.619,41.212,4.593,296.1,546.6,291.5
2024-01-29T03:21:07,2420,42.8014,5.9826,4330,272,186.486,57.107,13.304,36.042,36.622,41.213,4.592,296.2,546.7,291.4
2024-01-29T03:24:07,2420,42.8014,5.9826,4330,272,186.566,57.132,13.304,36.036,36.616,41.216,4.599,296.2,546.7,291.4
2024-01-29T03:27:07,2420,42.8014,5.9826,4330,272,186.509,57.115,13.304,36.040,36.620,41.215,4.595,296.1,546.6,291.4
2024-01-29T03:30:08,2420,42.8014,5.9826,4330,272,186.276,57.044,13.304,36.055,36.634,41.228,4.594,296.1,546.6,291.4
2024-01-29T03:33:07,2420,42.8014,5.9826,4330,272,186.352,57.066,13.303,36.050,36.630,41.219,4.589,296.1,546.6,291.5
2024-01-29T03:36:07,2420,42.8014,5.9826,4330,272,186.374,57.073,13.304,36.048,36.628,41.221,4.593,296.1,546.6,291.4
2024-01-29T03:39:07,2420,42.8014,5.9826,4330,272,186.277,57.045,13.305,36.054,36.634,41.228,4.593,296.1,546.6,291.4
2024-01-29T03:42:07,2420,42.8014,5.9826,4330,272,186.325,57.057,13.303,36.052,36.632,41.224,4.592,296.1,546.6,291.5
2024-01-29T03:45:07,2420,42.8014,5.9826,4330,272,186.557,57.128,13.303,36.037,36.617,41.211,4.594,296.1,546.7,291.5
2024-01-29T03:48:07,2420,42.8014,5.9826,4330,272,186.528,57.121,13.304,36.038,36.618,41.211,4.592,296.2,546.7,291.4
2024-01-29T03:51:07,2420,42.8014,5.9826,4330,272,186.426,57.090,13.304,36.045,36.625,41.218,4.594,296.1,546.7,291.4
2024-01-29T03:54:07,2420,42.8014,5.9826,4330,272,186.194,57.019,13.305,36.060,36.640,41.235,4.595,296.1,546.7,291.4
2024-01-29T03:57:08,2420,42.8014,5.9826,4330,272,186.498,57.114,13.306,36.040,36.620,41.208,4.588,296.1,546.7,291.4
2024-01-29T04:00:08,2420,42.8014,5.9826,4330,272,186.420,57.089,13.305,36.045,36.625,41.222,4.597,296.2,546.6,291.4
2024-01-29T04:03:07,2420,42.8014,5.9826,4330,272,186.263,57.041,13.305,36.055,36.635,41.224,4.589,296.2,546.6,291.4
2024-01-29T04:06:07,2420,42.8014,5.9826,4330,272,186.359,57.070,13.304,36.049,36.629,41.221,4.592,296.2,546.7,291.4
2024-01-29T04:09:07,2420,42.8014,5.9826,4330,272,186.401,57.084,13.306,36.046,36.626,41.216,4.590,296.1,546.6,291.4
2024-01-29T04:12:07,2420,42.8014,5.9826,4330,272,186.423,57.089,13.305,36.045,36.625,41.218,4.594,296.1,546.6,291.4
2024-01-29T04:15:08,2420,42.8014,5.9826,4330,272,186.175,57.014,13.305,36.060,36.640,41.228,4.588,296.1,546.6,291.4
2024-01-29T04:18:08,2420,42.8014,5.9826,4330,272,185.996,56.958,13.304,36.073,36.653,41.243,4.589,296.2,546.7,291.4
2024-01-29T04:21:07,2420,42.8014,5.9826,4330,272,186.527,57.122,13.305,36.038,36.618,41.212,4.594,296.1,546.6,291.4
2024-01-29T04:24:07,2420,42.8014,5.9826,4330,272,186.606,57.146,13.305,36.032,36.612,41.210,4.598,296.1,546.6,291.4
2024-01-29T04:27:07,2420,42.8014,5.9826,4330,272,186.467,57.102,13.304,36.042,36.622,41.214,4.592,296.1,546.6,291.4
2024-01-29T04:30:07,2420,42.8014,5.9826,4330,272,186.455,57.099,13.304,36.043,36.623,41.215,4.592,296.2,546.7,291.4
2024-01-29T04:33:08,2420,42.8014,5.9826,4330,272,186.376,57.075,13.305,36.047,36.627,41.217,4.590,296.1,546.6,291.4
2024-01-29T04:36:07,2420,42.8014,5.9826,4330,272,186.484,57.110,13.306,36.040,36.620,41.210,4.590,296.1,546.6,291.4
2024-01-29T04:39:07,2420,42.8014,5.9826,4330,272,186.506,57.118,13.307,36.038,36.618,41.216,4.597,296.1,546.6,291.3
2024-01-29T04:42:07,2420,42.8014,5.9826,4330,272,186.416,57.088,13.306,36.045,36.625,41.220,4.595,296.2,546.6,291.4
2024-01-29T04:45:07,2420,42.8014,5.9826,4330,272,186.250,57.036,13.304,36.057,36.637,41.226,4.589,296.2,546.7,291.4
2024-01-29T04:48:07,2420,42.8014,5.9826,4330,272,186.316,57.055,13.303,36.053,36.633,41.227,4.594,296.1,546.6,291.4
2024-01-29T04:51:08,2420,42.8014,5.9826,4330,272,186.509,57.116,13.305,36.039,36.619,41.213,4.593,296.1,546.7,291.4
2024-01-29T04:54:08,2420,42.8014,5.9826,4330,272,186.346,57.069,13.307,36.048,36.628,41.223,4.595,296.1,546.6,291.3
2024-01-29T04:57:07,2420,42.8014,5.9826,4330,272,186.387,57.079,13.305,36.047,36.627,41.221,4.594,296.2,546.6,291.4
2024-01-29T05:00:07,2420,42.8014,5.9826,4330,272,186.420,57.089,13.305,36.045,36.625,41.212,4.587,296.1,546.6,291.4
2024-01-29T05:03:07,2420,42.8014,5.9826,4330,272,186.331,57.065,13.307,36.049,36.629,41.225,4.596,296.2,546.7,291.3
2024-01-29T05:06:07,2420,42.8014,5.9826,4330,272,186.326,57.062,13.306,36.050,36.630,41.220,4.589,296.1,546.7,291.4
2024-01-29T05:09:07,2420,42.8014,5.9826,4330,272,186.531,57.126,13.307,36.036,36.616,41.207,4.591,296.1,546.6,291.3
2024-01-29T05:12:07,2420,42.8014,5.9826,4330,272,186.400,57.086,13.307,36.045,36.625,41.217,4.591,296.1,546.6,291.3
2024-01-29T05:15:08,2420,42.8014,5.9826,4330,272,186.243,57.035,13.305,36.056,36.636,41.232,4.596,296.2,546.6,291.4
2024-01-29T05:18:08,2420,42.8014,5.9826,4330,272,186.421,57.091,13.306,36.045,36.624,41.218,4.593,296.1,546.6,291.3
2024-01-29T05:21:08,2420,42.8014,5.9826,4330,272,186.615,57.150,13.306,36.032,36.612,41.203,4.591,296.2,546.6,291.4
2024-01-29T05:24:08,2420,42.8014,5.9826,4330,272,186.395,57.082,13.305,36.046,36.626,41.214,4.588,296.1,546.6,291.4
2024-01-29T05:27:07,2420,42.8014,5.9826,4330,272,186.046,56.975,13.306,36.069,36.649,41.240,4.592,296.2,546.6,291.4
2024-01-29T05:30:07,2420,42.8014,5.9826,4330,272,186.547,57.130,13.307,36.036,36.616,41.210,4.594,296.1,546.6,291.3
2024-01-29T05:33:07,2420,42.8014,5.9826,4330,272,186.531,57.124,13.306,36.037,36.617,41.207,4.591,296.1,546.6,291.4
2024-01-29T05:36:07,2420,42.8014,5.9826,4330,272,186.410,57.087,13.306,36.046,36.626,41.217,4.591,296.1,546.6,291.4
2024-01-29T05:39:07,2420,42.8014,5.9826,4330,272,186.551,57.129,13.305,36.036,36.616,41.208,4.592,296.2,546.6,291.4
2024-01-29T05:42:07,2420,42.8014,5.9826,4330,272,186.283,57.047,13.305,36.054,36.634,41.223,4.589,296.2,546.6,291.4
2024-01-29T05:45:08,2420,42.8014,5.9826,4330,272,186.366,57.074,13.306,36.048,36.628,41.222,4.594,296.1,546.7,291.4
2024-01-29T05:48:08,2420,42.8014,5.9826,4330,272,186.227,57.031,13.306,36.057,36.637,41.235,4.597,296.2,546.6,291.4
2024-01-29T05:51:08,2420,42.8014,5.9826,4330,272,186.329,57.061,13.305,36.051,36.631,41.224,4.594,296.2,546.7,291.4
2024-01-29T05:54:07,2420,42.8014,5.9826,4330,272,186.636,57.155,13.305,36.031,36.611,41.199,4.588,296.1,546.6,291.4
2024-01-29T05:57:07,2420,42.8014,5.9826,4330,272,186.306,57.056,13.306,36.052,36.632,41.221,4.589,296.1,546.6,291.3
2024-01-29T06:00:07,2420,42.8014,5.9826,4330,272,186.271,57.045,13.306,36.054,36.634,41.230,4.596,296.2,546.6,291.3
2024-01-29T06:03:07,2420,42.8014,5.9826,4330,272,186.443,57.098,13.306,36.043,36.623,41.213,4.589,296.1,546.7,291.3
2024-01-29T06:06:07,2420,42.8014,5.9826,4330,272,186.467,57.111,13.311,36.039,36.619,41.210,4.591,296.2,546.7,291.2
2024-01-29T06:09:07,2420,42.8014,5.9826,4330,272,186.467,57.106,13.307,36.040,36.620,41.211,4.591,296.2,546.6,291.3
2024-01-29T06:12:07,2420,42.8014,5.9826,4330,272,186.274,57.047,13.307,36.053,36.633,41.220,4.587,296.2,546.6,291.3
2024-01-29T06:15:07,2420,42.8014,5.9826,4330,272,186.112,56.998,13.307,36.063,36.643,41.232,4.589,296.2,546.6,291.3
2024-01-29T06:18:08,2420,42.8014,5.9826,4330,272,186.473,57.107,13.306,36.041,36.621,41.210,4.589,296.1,546.6,291.3
2024-01-29T06:21:08,2420,42.8014,5.9826,4330,272,185.958,56.948,13.305,36.074,36.654,41.241,4.587,296.2,546.6,291.4
2024-01-29T06:24:08,2420,42.8014,5.9826,4330,272,186.434,57.096,13.307,36.043,36.623,41.215,4.592,296.1,546.6,291.3
2024-01-29T06:27:08,2420,42.8014,5.9826,4330,272,186.744,57.191,13.307,36.022,36.603,41.191,4.588,296.2,546.5,291.3
2024-01-29T06:30:08,2420,42.8014,5.9826,4330,272,186.284,57.052,13.309,36.052,36.632,41.222,4.590,296.3,546.5,291.3
2024-01-29T06:33:07,2420,42.8014,5.9826,4330,272,186.395,57.085,13.308,36.045,36.625,41.216,4.591,296.2,546.6,291.3
2024-01-29T06:36:07,2420,42.8014,5.9826,4330,272,186.283,57.050,13.307,36.052,36.632,41.229,4.597,296.1,546.6,291.3
2024-01-29T06:39:07,2420,42.8014,5.9826,4330,272,186.100,56.996,13.309,36.064,36.644,41.235,4.592,296.1,546.6,291.3
2024-01-29T06:42:07,2420,42.8014,5.9826,4330,272,186.253,57.038,13.306,36.055,36.635,41.227,4.592,296.2,546.7,291.4
2024-01-29T06:45:07,2420,42.8014,5.9826,4330,272,186.179,57.016,13.306,36.060,36.640,41.230,4.590,296.2,546.6,291.4
2024-01-29T06:48:08,2420,42.8014,5.9826,4330,272,186.197,57.022,13.306,36.059,36.639,41.228,4.589,296.1,546.6,291.4
2024-01-29T06:51:08,2420,42.8014,5.9826,4330,272,186.241,57.036,13.306,36.056,36.636,41.224,4.588,296.2,546.7,291.4
2024-01-29T06:54:08,2420,42.8014,5.9826,4330,272,186.377,57.077,13.306,36.048,36.627,41.215,4.587,296.1,546.6,291.4
2024-01-29T06:57:08,2420,42.8014,5.9826,4330,272,186.210,57.027,13.307,36.057,36.637,41.224,4.587,296.2,546.6,291.3
2024-01-29T07:00:07,2420,42.8014,5.9826,4330,272,186.406,57.085,13.305,36.046,36.626,41.216,4.591,296.2,546.6,291.4
2024-01-29T07:03:07,2420,42.8014,5.9826,4330,272,186.224,57.031,13.307,36.057,36.637,41.228,4.592,296.2,546.6,291.3
2024-01-29T07:06:07,2420,42.8014,5.9826,4330,272,186.268,57.045,13.307,36.054,36.634,41.223,4.589,296.2,546.7,291.3
2024-01-29T07:09:08,2420,42.8014,5.9826,4330,272,186.427,57.095,13.308,36.043,36.623,41.217,4.594,296.2,546.7,291.3
2024-01-29T07:12:08,2420,42.8014,5.9826,4330,272,186.195,57.023,13.307,36.059,36.639,41.224,4.586,296.2,546.6,291.3
2024-01-29T07:15:08,2420,42.8014,5.9826,4330,272,186.425,57.091,13.305,36.044,36.624,41.217,4.593,296.2,546.6,291.4
2024-01-29T07:18:07,2420,42.8014,5.9826,4330,272,186.250,57.040,13.307,36.055,36.635,41.229,4.594,296.2,546.6,291.3
2024-01-29T07:21:07,2420,42.8014,5.9826,4330,272,186.225,57.031,13.306,36.057,36.637,41.225,4.588,296.2,546.6,291.4
2024-01-29T07:24:08,2420,42.8014,5.9826,4330,272,186.321,57.061,13.307,36.050,36.630,41.223,4.593,296.2,546.6,291.3
2024-01-29T07:27:08,2420,42.8014,5.9826,4330,272,186.453,57.101,13.306,36.042,36.622,41.216,4.594,296.2,546.6,291.3
2024-01-29T07:30:08,2420,42.8014,5.9826,4330,272,186.533,57.129,13.310,36.036,36.616,41.207,4.592,296.2,546.6,291.2
2024-01-29T07:33:07,2420,42.8014,5.9826,4330,272,186.192,57.021,13.307,36.059,36.639,41.227,4.588,296.2,546.7,291.3
2024-01-29T07:36:07,2420,42.8014,5.9826,4330,272,186.332,57.065,13.308,36.050,36.630,41.224,4.594,296.2,546.6,291.3
2024-01-29T07:39:07,2420,42.8014,5.9826,4330,272,186.319,57.062,13.309,36.050,36.630,41.223,4.594,296.2,546.6,291.3
2024-01-29T07:42:08,2420,42.8014,5.9826,4330,272,186.247,57.040,13.308,36.055,36.635,41.224,4.589,296.1,546.6,291.3
2024-01-29T07:45:08,2420,42.8014,5.9826,4330,272,186.427,57.097,13.309,36.042,36.622,41.215,4.593,296.2,546.6,291.2
2024-01-29T07:48:08,2420,42.8014,5.9826,4330,272,186.252,57.045,13.311,36.053,36.633,41.220,4.587,296.2,546.6,291.2
2024-01-29T07:51:07,2420,42.8014,5.9826,4330,272,186.271,57.049,13.310,36.052,36.632,41.221,4.589,296.2,546.6,291.2
2024-01-29T07:54:07,2420,42.8014,5.9826,4330,272,186.244,57.040,13.309,36.054,36.634,41.226,4.592,296.1,546.6,291.3
2024-01-29T07:57:07,2420,42.8014,5.9826,4330,272,186.045,56.979,13.309,36.068,36.647,41.239,4.591,296.2,546.7,291.3
2024-01-29T08:00:08,2420,42.8014,5.9826,4330,272,186.118,57.003,13.311,36.062,36.642,41.232,4.590,296.1,546.6,291.2
2024-01-29T08:03:07,2420,42.8014,5.9826,4330,272,186.397,57.090,13.312,36.043,36.623,41.219,4.596,296.2,546.6,291.2
2024-01-29T08:06:07,2420,42.8014,5.9826,4330,272,186.419,57.095,13.310,36.042,36.622,41.213,4.591,296.2,546.5,291.2
2024-01-29T08:09:07,2420,42.8014,5.9826,4330,272,186.324,57.066,13.310,36.048,36.628,41.217,4.589,296.1,546.5,291.2
2024-01-29T08:12:07,2420,42.8014,5.9826,4330,272,186.249,57.044,13.311,36.053,36.633,41.223,4.590,296.2,546.6,291.2
2024-01-29T08:15:08,2420,42.8014,5.9826,4330,272,186.167,57.017,13.309,36.059,36.639,41.228,4.589,296.2,546.5,291.2
2024-01-29T08:18:08,2420,42.8014,5.9826,4330,272,186.432,57.100,13.311,36.041,36.621,41.214,4.592,296.2,546.6,291.2
2024-01-29T08:21:07,2420,42.8014,5.9826,4330,272,186.252,57.044,13.310,36.053,36.633,41.228,4.595,296.2,546.6,291.2
2024-01-29T08:24:07,2420,42.8014,5.9826,4330,272,186.477,57.114,13.311,36.038,36.618,41.214,4.595,296.1,546.6,291.2
2024-01-29T08:27:08,2420,42.8014,5.9826,4330,272,186.138,57.010,13.311,36.060,36.640,41.235,4.595,296.2,546.6,291.2
2024-01-29T08:30:08,2420,42.8014,5.9826,4330,272,186.304,57.058,13.309,36.050,36.630,41.221,4.591,296.2,546.5,291.3
2024-01-29T08:33:07,2420,42.8014,5.9826,4330,272,186.325,57.065,13.309,36.049,36.629,41.220,4.591,296.1,546.5,291.3
2024-01-29T08:36:07,2420,42.8014,5.9826,4330,272,186.215,57.029,13.307,36.057,36.637,41.222,4.585,296.1,546.6,291.3
2024-01-29T08:39:07,2420,42.8014,5.9826,4330,272,186.183,57.020,13.308,36.059,36.639,41.227,4.589,296.1,546.6,291.3
2024-01-29T08:42:07,2420,42.8014,5.9826,4330,272,186.231,57.036,13.309,36.055,36.635,41.228,4.593,296.2,546.6,291.3
2024-01-29T08:45:07,2420,42.8014,5.9826,4330,272,186.340,57.069,13.308,36.049,36.629,41.219,4.591,296.2,546.6,291.3
2024-01-29T08:48:07,2420,42.8014,5.9826,4330,272,186.141,57.006,13.307,36.062,36.642,41.230,4.588,296.2,546.6,291.3
2024-01-29T08:51:08,2420,42.8014,5.9826,4330,272,186.338,57.067,13.307,36.049,36.629,41.223,4.594,296.1,546.5,291.3
2024-01-29T08:54:08,2420,42.8014,5.9826,4330,272,186.365,57.077,13.309,36.047,36.627,41.222,4.595,296.1,546.6,291.3
2024-01-29T08:57:08,2420,42.8014,5.9826,4330,272,186.391,57.083,13.307,36.045,36.625,41.221,4.596,296.2,546.6,291.3
2024-01-29T09:00:08,2420,42.8014,5.9826,4330,272,186.434,57.096,13.308,36.043,36.623,41.218,4.595,296.2,546.7,291.3
2024-01-29T09:03:07,2420,42.8014,5.9826,4330,272,186.131,57.004,13.308,36.062,36.642,41.227,4.585,296.2,546.6,291.3
2024-01-29T09:06:07,2420,42.8014,5.9826,4330,272,186.593,57.147,13.309,36.032,36.612,41.205,4.594,296.1,546.6,291.3
2024-01-29T09:09:07,2420,42.8014,5.9826,4330,272,186.320,57.065,13.310,36.049,36.629,41.217,4.588,296.2,546.6,291.2
2024-01-29T09:12:07,2420,42.8014,5.9826,4330,272,186.348,57.068,13.306,36.049,36.629,41.219,4.590,296.1,546.6,291.4
2024-01-29T09:15:08,2420,42.8014,5.9826,4330,272,186.208,57.030,13.310,36.056,36.636,41.233,4.597,296.2,546.6,291.2
2024-01-29T09:18:08,2420,42.8014,5.9826,4330,272,186.314,57.060,13.308,36.050,36.630,41.225,4.594,296.2,546.6,291.3
2024-01-29T09:21:08,2420,42.8014,5.9826,4330,272,186.251,57.043,13.310,36.053,36.633,41.223,4.590,296.1,546.6,291.2
2024-01-29T09:24:08,2420,42.8014,5.9826,4330,272,186.123,57.004,13.310,36.062,36.642,41.231,4.589,296.2,546.7,291.2
2024-01-29T09:27:07,2420,42.8014,5.9826,4330,272,186.378,57.081,13.309,36.046,36.626,41.216,4.590,296.1,546.6,291.3
2024-01-29T09:30:07,2420,42.8014,5.9826,4330,272,186.384,57.085,13.311,36.044,36.624,41.214,4.590,296.1,546.5,291.2
2024-01-29T09:33:07,2420,42.8014,5.9826,4330,272,186.317,57.064,13.310,36.049,36.629,41.221,4.593,296.2,546.6,291.2
2024-01-29T09:36:07,2420,42.8014,5.9826,4330,272,186.271,57.048,13.309,36.052,36.632,41.230,4.598,296.1,546.6,291.3
2024-01-29T09:39:07,2420,42.8014,5.9826,4330,272,186.184,57.028,13.314,36.056,36.636,41.224,4.588,296.2,546.6,291.1
2024-01-29T09:42:08,2420,42.8014,5.9826,4330,272,186.333,57.069,13.310,36.048,36.628,41.217,4.588,296.1,546.6,291.2
2024-01-29T09:45:08,2420,42.8014,5.9826,4330,272,186.368,57.078,13.309,36.047,36.627,41.218,4.591,296.2,546.6,291.3
2024-01-29T09:48:08,2420,42.8014,5.9826,4330,272,186.199,57.027,13.309,36.057,36.637,41.229,4.593,296.1,546.6,291.3
2024-01-29T09:51:07,2420,42.8014,5.9826,4330,272,186.469,57.108,13.308,36.040,36.620,41.215,4.595,296.2,546.6,291.3
2024-01-29T09:54:07,2420,42.8014,5.9826,4330,272,186.466,57.118,13.316,36.036,36.616,41.209,4.592,296.2,546.6,291.0
2024-01-29T09:57:08,2420,42.8014,5.9826,4330,272,186.128,57.009,13.312,36.060,36.640,41.230,4.590,296.2,546.6,291.2
2024-01-29T10:00:08,2420,42.8014,5.9826,4330,272,186.282,57.056,13.312,36.051,36.631,41.224,4.593,296.1,546.6,291.2